Lance Randall Cochrane

VIRTUS ESTE


Informazioni sul tesseramento aggiornate al 2020


Condividi con
Seguici su:


200 metri

Anno Data Tipo Cr. Cat. Piazz. Prestaz. Vento Città  
201912/09PESM502 se- 1 28.92-0.4Rovigo
 

400 metri

Anno Data Tipo Cr. Cat. Piazz. Prestaz. Vento Città  
201026/06PEMM452 se- 2 57.49Mestre
200906/06PEMM403 se- 2 58.64Mestre
201002/10PEMM454 se- 3 58.79Cagliari
201118/06PEMM455 se- 2 59.49Rovigo
201611/06PESM501 se- 3 59.59Marcon
200725/07PEMM404 se- 3 59.64Massalombarda
201614/05PESM502 se- 3 1:00.64Mestre
 

600 metri

Anno Data Tipo Cr. Cat. Piazz. Prestaz. Vento Città  
201512/04PESM506 se- 3 1:37.99Treviso
 

800 metri

Anno Data Tipo Cr. Cat. Piazz. Prestaz. Vento Città  
200821/09PEMM406 se- 1 2:08.14Formia
201027/06PEMM453 se- 1 2:08.56Mestre
200808/06PEMM404 se- 1 2:08.93Vicenza
200710/06PEMM402 se- 1 2:08.93Mestre
201012/06PEMM456 se- 2 2:09.32Roma
200825/05PEMM404 se- 1 2:09.89San Giovanni Lupatoto
200707/10PEMM403 se- 2 2:10.09Macerata
200822/06PEMM404 su- 1 2:10.52Bressanone
200728/04PEMM403 se- 3 2:10.70Borgoricco
201001/06PEMM457 se- 2 2:10.78Treviso
200706/09PEMM407 ba- 4 2:10.89Riccione
200704/03IEMM404 se- 2 2:11.09Ancona
201216/09PEMM453 su- 1 2:11.29Mestre
201126/07PEMM459 se- 1 2:11.45Trento
200601/10PEMM405 se- 1 2:11.73Ostia
200809/03IEMM405 su- 1 2:12.05Ancona
201709/07PESM504 se- 2 2:12.11Orvieto
201718/07PESM503 se- 1 2:12.19Trento
201721/05PESM503 se- 8 2:12.20San Biagio Di Callalta
200914/02IEMM402 se- 2 2:12.35Padova
201201/07PEMM455 se- 2 2:12.35Mestre
201521/07PESM506 se- 1 2:12.53Trento
201408/06PESM454 se- 1 2:12.59Caprino Veronese
200901/03IEMM408 se- 2 2:12.66Ancona
201001/05PEMM456 se- 3 2:12.74Voltabarozzo
201718/06PESM504 se- 1 2:12.94Marcon
200920/09PEMM401 se- 2 2:12.99Firenze
201618/09PESM507 se- 4 2:13.01Aquila
201723/07PESM504 se- 1 2:13.25San Biagio Di Callalta
201810/07PESM508 se- 8 2:13.29Trento
201505/07PESM506 se- 2 2:13.55Cassino
200907/06PEMM404 se- 1 2:13.56Mestre
201523/05PESM506 se- 3 2:13.62Scorze
201406/07PESM456 se- 3 2:13.68Modena
200927/03IEMM404 ba- 4 2:13.69Ancona
201211/03IEMM453 se- 2 2:14.16Ancona
201612/06PESM504 se- 1 2:14.17Marcon
201817/06PESM508 se- 1 2:14.25San Biagio Di Callalta
200602/07PEMM402 se- 2 2:14.61Mestre
201128/05PEMM459 se- 3 2:14.61Noale
201810/02IESM502 se- 2 2:14.89Padova
201830/09PESM505 se- 5 2:14.92Modena
201613/02IESM505 se- 2 2:14.92Padova
200928/03IEMM408 sf- 2 2:14.94Ancona
201003/10PEMM4511 se- 3 2:14.96Cagliari
201628/02IESM506 se- 3 2:15.04Ancona
201316/06PEMM454 se- 1 2:15.21Mestre
200824/02IEMM406 se- 1 2:15.46Padova
201802/09PESM504 se- 1 2:15.55San Biagio Di Callalta
201514/06PESM506 se- 1 2:16.09Mestre
201615/05PESM506 se- 1 2:16.42Mestre
201610/04PESM508 se- 2 2:16.69Treviso
201423/02IESM455 se- 1 2:17.06Padova
201421/09PESM456 se- 4 2:17.20Jesolo
201503/10PMSM502 se- 2 2:17.2Padova
201222/06PEMM453 se- 1 2:17.23Comacchio
201916/06PESM505 se- 1 2:17.35San Biagio Di Callalta
201212/07PEMM456 se- 3 2:17.69Ferrara
201409/03IESM457 se- 3 2:17.82Ancona
201916/07PESM506 su- 1 2:17.88Padova
201924/02IESM506 se- 4 2:19.12Ancona
201901/09PESM501 se- 2 2:20.94Monselice
200605/03IEMM406 se- 1 2:22.40Ancona
201119/06PEMM457 se- 1 2:23.18Rovigo
 

1000 metri

Anno Data Tipo Cr. Cat. Piazz. Prestaz. Vento Città  
201728/05PMSM503 su- 1 2:53.6Padova
201823/08PESM508 su- 1 2:53.99Rovereto
201630/04PMSM504 se- 1 2:58.9Padova
201615/10PESM508 su- 1 2:59.09Padova
 

1500 metri

Anno Data Tipo Cr. Cat. Piazz. Prestaz. Vento Città  
201215/09PEMM454 se- 1 4:29.23Mestre
200807/09PEMM409 se- 2 4:29.31Treviso
201514/07PESM507 se- 1 4:30.17Trento
200824/05PEMM407 su- 1 4:31.67San Giovanni Lupatoto
200709/06PEMM406 su- 1 4:32.03Mestre
200912/09PEMM4012 se- 1 4:32.42Copparo
201407/06PESM454 se- 1 4:32.61Caprino Veronese
201824/07PESM5015 se- 6 4:33.36Trento
201513/06PESM504 se- 1 4:33.79Mestre
201021/05PEMM4513 su- 1 4:34.13Ponzano
200703/03IEMM405 su- 1 4:34.52Ancona
200601/07PEMM403 se- 1 4:34.65Mestre
200630/09PEMM403 se- 2 4:35.62Ostia
201420/09PESM4511 se- 3 4:35.94Jesolo
201717/06PESM508 se- 1 4:36.50Marcon
201609/07PESM502 su- 1 4:37.35Arezzo
201816/06PESM507 se- 1 4:37.36San Biagio Di Callalta
201230/06PEMM456 se- 2 4:37.98Mestre
201224/07PEMM4514 su- 1 4:38.06Trento
201829/09PESM505 se- 3 4:38.55Modena
200726/05PEMM404 se- 1 4:39.24San Giovanni Lupatoto
200919/09PEMM401 se- 2 4:40.15Firenze
201617/09PESM505 se- 3 4:40.79Aquila
201327/08PEMM4514 se- 2 4:41.40Desenzano Del Garda
201705/02IESM503 se- 2 4:41.44Padova
200627/05PMMM406 su- 1 4:41.7San Giovanni Lupatoto
200706/05PEMM409 su- 1 4:41.76Treviso
200710/09PEMM4013 sf- 2 4:42.65Riccione
201801/09PESM504 su- 1 4:42.70San Biagio Di Callalta
200706/10PEMM4011 se- 1 4:42.81Macerata
201018/04PEMM4514 se- 2 4:42.83Treviso
201607/02IESM506 se- 1 4:43.45Padova
200610/06PEMM4010 su- 1 4:44.06Misano Adriatico
201803/02IESM509 se- 2 4:44.63Padova
201315/06PEMM458 se- 1 4:45.53Mestre
200808/03IEMM408 su- 1 4:45.77Ancona
201811/02IESM503 se- 2 4:46.57Padova
200928/02IEMM409 su- 1 4:46.87Ancona
201504/07PESM509 se- 2 4:47.10Cassino
200807/06PMMM4011 se- 1 4:47.2Vicenza
201102/07PEMM452 se- 2 4:47.63Mestre
201915/06PESM5011 se- 1 4:48.56San Biagio Di Callalta
201716/09PESM5010 se- 3 4:49.02Montecassiano
201824/02IESM508 se- 2 4:51.42Ancona
200931/01IEMM4012 se- 2 4:51.98Padova
201708/07PESM5014 se- 2 4:56.00Orvieto
 

3000 metri

Anno Data Tipo Cr. Cat. Piazz. Prestaz. Vento Città  
201429/07PESM4511 se- 1 9:45.98Trento
201320/08PEMM459 se- 2 9:51.60Desenzano Del Garda
201421/05PMSM454 se- 1 9:59.0Padova
201308/05PEMM4515 su- 1 9:59.37Mogliano Veneto
201007/07PEMM455 se- 3 10:01.04Montebelluna
201311/07PEMM4511 se- 2 10:05.66Ferrara
201205/05PEMM4513 se- 2 10:11.59Scorze
201824/01IESM503 se- 3 10:16.22Padova
201525/04PESM5017 se- 1 10:19.16Padova
201528/07PESM5014 se- 1 10:19.41Trento
201329/05PMMM454 se- 1 10:23.6Arcella
 

5000 metri

Anno Data Tipo Cr. Cat. Piazz. Prestaz. Vento Città  
201330/07PEMM4512 su- 1 17:02.97Trento
201422/07PESM457 se- 2 17:12.69Trento
201312/09PEMM4521 su- 1 17:36.01Marcon
201401/05PESM457 su- 1 17:39.01Padova
201231/07PEMM4517 su- 1 17:45.38Trento
201619/07PESM5012 su- 4 17:56.42Trento
201717/09PESM508 se- 2 18:28.95Montecassiano
 

Corsa strada Km 10

Anno Data Tipo Cr. Cat. Piazz. Prestaz. Vento Città  
201414/09SMSM4535 su- 1 36:37San Giorgio Pertiche
201218/03SMMM4559 su- 1 37:29Vicenza
201809/09SMSM5050 su- 1 38:13San Giorgio D.pertiche
200905/04SMMM40122 su- 1 40:44Bologna
201710/09SMSM50106 su- 1 45:47San Giorgio Pertiche
 

MARATONA A

Anno Data Tipo Cr. Cat. Piazz. Prestaz. Vento Città  
200925/10SMMM40980 su- 1 3h29:02Venezia
 

Attenzione: le schede-atleti sono composte automaticamente sulla base dei dati inseriti all'interno degli archivi nazionali aggiornati dal 2005 al 09-04-2020. Se un risultato non compare nelle graduatorie, quindi, è segno che lo stesso, con ogni probabilità, non è stato ancora inserito. Il processo di inserimento è di competenza dei Comitati Regionali sul cui territorio ha avuto luogo la manifestazione: eventuali segnalazioni per errori od omissioni, vanno dunque indirizzate agli stessi (potete utilizzare l'elenco con relativi contatti). Considerato però che solo le principali manifestazioni nazionali sono oggetto di inserimenti "in diretta" (sul posto di gara), mentre le altre, incluse le internazionali in programma all'estero, vengono inserite in tempi successivi, è opportuno attendere un ragionevole lasso di tempo prima di procedere ad una segnalazione.

Stickers


Non ventosi

GaraTipoPrestazioneVentoAnnoCittà
200 metriPista 28.92-0.42019Rovigo
400 metriPista 57.492010Mestre
600 metriPista 1:37.992015Treviso
800 metriPista 2:08.142008Formia
800 metriIndoor 2:11.092007Ancona
1000 metriPista 2:53.62017Padova
1500 metriPista 4:29.232012Mestre
1500 metriIndoor 4:34.522007Ancona
3000 metriPista 9:45.982014Trento
3000 metriIndoor 10:16.222018Padova
5000 metriPista 17:02.972013Trento
Corsa strada Km 10Strada 36:372014San Giorgio Pertiche
MARATONA AStrada 3h29:022009Venezia

AnnoTipo mov.CategoriaSocietà
2020RinnovoSeniores 55 MaschileVIRTUS ESTE
2019RinnovoSeniores 50 MaschileVIRTUS ESTE
2018RinnovoSeniores 50 MaschileVIRTUS ESTE
2017RinnovoSeniores 50 MaschileVIRTUS ESTE
2016RinnovoSeniores 50 MaschileVIRTUS ESTE VALBONA
2015RinnovoSeniores 50 MaschileVIRTUS ESTE VALBONA
2014RinnovoSeniores 45 MaschileVIRTUS ESTE VALBONA
2013RinnovoMaster 45 MaschileVIRTUS ESTE VALBONA
2012RinnovoMaster 45 MaschileVIRTUS ESTE VALBONA
2011RinnovoMaster 45 MaschileVIRTUS ESTE VALBONA
2010RinnovoMaster 45 MaschileVIRTUS ESTE VALBONA
2009RinnovoMaster 40 MaschileVIRTUS ESTE VALBONA
2008RinnovoMaster 40 MaschileVIRTUS ESTE VALBONA
2007RinnovoMaster 40 MaschileVIRTUS ESTE VALBONA
2006TrasferimentoMaster 40 MaschileVIRTUS ESTE VALBONA
2005NuovoMaster 40 MaschileG.A. ASSINDUSTRIA ROVIGO